User: anonymous   Login
Location: Unspecified
(0.0000°N, 0.0000°E)
Time: 02:13:15
(UTC+00:00)
Language:

STARLINK-4740 - Orbit

View from above orbital plane
View from above orbital plane
View from above satellite
View from above satellite

Ground track
Ground track

The orbit is defined by the following mean orbital elements,

1 53871U          26145.10370127 +.00000000 +00000-0 +32263-4 0 00006
2 53871  53.2135 280.7054 0001210  86.5543 273.5587 15.08838684    04
Epoch (UTC): 25 May 2026 02:29:19
Eccentricity: 0.0001210
inclination: 53.2135°
perigee height: 539 km
apogee height: 541 km
right ascension of ascending node: 280.7054°
argument of perigee: 86.5543°
revolutions per day: 15.08838684
mean anomaly at epoch: 273.5587°

The dashed part of the orbit path shows where the satellite is in the earth's shadow,  

DLR